Overview Statistics Trail Chart Weather Telemetry Raw packets
 

This is the latest recevied weather packets stored in our database for station/object KC2GYU. If no packets are shown the sender has not sent any weather packets the latest 10 day(s).

<< 8 9 10 11 12 13 14 >>
Time Temp. Humidity Pressure Rain* Wind** Luminosity Snow
1778066350 15.56° C 95% 1012.1 hPa 0 mm - 70 W/m² -
1778066042 15° C 96% 1012.4 hPa 0 mm - 52 W/m² -
1778065739 15° C 96% 1012.6 hPa 0 mm - 42 W/m² -
1778065436 14.44° C 97% 1012.5 hPa 0 mm - 38 W/m² -
1778065133 14.44° C 97% 1012.6 hPa 0 mm - 33 W/m² -
1778064829 14.44° C 97% 1012.6 hPa 0 mm - 31 W/m² -
1778064527 13.89° C 97% 1012.3 hPa 0 mm - 28 W/m² -
1778064224 13.89° C 97% 1012.5 hPa 0 mm - 25 W/m² -
1778063922 13.89° C 97% 1012.4 hPa 0 mm - 23 W/m² -
1778063619 13.89° C 97% 1012.6 hPa 0 mm - 19 W/m² -
1778063316 13.89° C 97% 1012.5 hPa 0 mm - 15 W/m² -
1778063014 13.89° C 97% 1012.6 hPa 0 mm - 10 W/m² -
1778062732 13.89° C 97% 1012.4 hPa 0 mm - 8 W/m² -
1778062407 13.89° C 97% 1012.2 hPa 0 mm - 5 W/m² -
1778062105 13.89° C 97% 1012.3 hPa 0 mm - 4 W/m² -
1778061803 13.89° C 97% 1012.1 hPa 0 mm - 3 W/m² -
1778061501 13.89° C 97% 1012.2 hPa 0 mm - 0 W/m² -
1778061198 13.89° C 97% 1012.2 hPa 0 mm - 0 W/m² -
1778060895 13.89° C 97% 1012.3 hPa 0 mm - 0 W/m² -
1778060594 13.89° C 97% 1012.4 hPa 0 mm - 0 W/m² -
1778060292 13.89° C 97% 1012.4 hPa 0 mm - 0 W/m² -
1778059988 13.89° C 97% 1012.3 hPa 0 mm - 0 W/m² -
1778059686 13.89° C 97% 1012.4 hPa 0 mm - 0 W/m² -
1778059384 13.89° C 97% 1012.2 hPa 0 mm - 0 W/m² -
1778059081 13.89° C 97% 1012.5 hPa 0 mm - 0 W/m² -

* Rain latest hour (hover to see other rain measurements)
** Current wind speed in m/s (hover to see current wind gust speed)